Sigfox identifier Datetime Temperature Humidity SNR
0038B039 2018-10-09 09:13:56 20.9 42 18.3
0038B039 2018-10-09 08:06:44 20.8 41 18.3
0038B039 2018-10-09 06:59:35 20.9 41 18.7
0038B039 2018-10-09 05:52:26 20.9 41 18.6
0038B039 2018-10-09 04:45:17 20.8 40 18.3
0038B039 2018-10-09 01:23:54 20.9 39 18.3
0038B039 2018-10-09 00:16:49 20.9 38 18.5
0038B039 2018-10-08 23:09:41 20.9 38 18.9
0038B039 2018-10-08 22:02:38 20.9 38 18.8
0038B039 2018-10-08 20:55:27 21 38 19.3
0038B039 2018-10-08 19:48:19 21 37 19.3
0038B039 2018-10-08 18:41:11 21 37 19.3
0038B039 2018-10-08 17:34:03 21 37 19.5
0038B039 2018-10-08 16:26:54 20.9 37 19.4
0038B039 2018-10-08 15:19:46 20.8 37 19.4
0038B039 2018-10-08 14:12:38 20.8 37 19.4
0038B039 2018-10-08 13:05:27 20.9 37 19.7
0038B039 2018-10-08 11:58:18 20.6 33 19.7
0038B039 2018-10-08 10:51:10 20.4 33 19.6
0038B039 2018-10-08 09:44:04 20.3 33 19.7
0038B039 2018-10-08 08:36:53 20.4 33 19.6
0038B039 2018-10-08 07:29:43 20.4 34 19.7
0038B039 2018-10-08 06:22:32 20.4 34 19.6
0038B039 2018-10-08 05:15:23 20.4 35 19.4
0038B039 2018-10-08 04:08:11 20.4 35 19.4
0038B039 2018-10-08 03:00:59 20.4 36 19
0038B039 2018-10-08 01:53:48 20.4 36 19.3
0038B039 2018-10-08 00:46:32 20.4 36 19.4
0038B039 2018-10-07 23:39:23 20.4 37 19.4
0038B039 2018-10-07 22:32:14 20.5 37 19.1
0038B039 2018-10-07 21:25:03 20.6 37 19.1
0038B039 2018-10-07 20:17:50 20.6 38 19.1
0038B039 2018-10-07 19:10:38 20.6 38 18.8
0038B039 2018-10-07 18:03:29 20.6 38 19.2
0038B039 2018-10-07 16:56:21 20.6 38 18.7
0038B039 2018-10-07 15:49:12 20.5 38 19
0038B039 2018-10-07 14:42:01 20.6 38 19.3
0038B039 2018-10-07 13:34:52 20.6 38 19.2
0038B039 2018-10-07 12:27:40 20.6 38 20.9
0038B039 2018-10-07 11:20:29 20.6 38 21.1
0038B039 2018-10-07 10:13:17 20.6 38 21.1
0038B039 2018-10-07 09:06:07 20.6 38 20.9
0038B039 2018-10-07 07:58:58 20.6 38 21.1
0038B039 2018-10-07 06:51:48 20.6 39 21.1
0038B039 2018-10-07 05:44:37 20.6 39 21.3
0038B039 2018-10-07 04:37:27 20.6 39 21.4
0038B039 2018-10-07 03:30:17 20.6 39 21.7
0038B039 2018-10-07 02:23:10 20.6 39 21.8
0038B039 2018-10-07 01:16:04 20.7 39 22
0038B039 2018-10-07 00:08:57 20.7 39 22.1
0038B039 2018-10-06 23:01:46 20.8 39 22.1
0038B039 2018-10-06 21:54:35 20.8 39 22.1
0038B039 2018-10-06 20:47:27 20.8 39 22.3
0038B039 2018-10-06 19:40:19 20.8 39 22.5
0038B039 2018-10-06 18:33:10 20.8 39 22.8
0038B039 2018-10-06 17:26:02 20.8 39 22.8
0038B039 2018-10-06 16:18:52 20.8 40 22.5
0038B039 2018-10-06 15:11:43 20.8 40 22.7
0038B039 2018-10-06 14:04:34 20.9 40 22.6
0038B039 2018-10-06 12:57:26 20.8 40 22.7
0038B039 2018-10-06 11:50:17 20.8 39 22.6
0038B039 2018-10-06 10:43:10 20.8 40 22.6
0038B039 2018-10-06 09:36:00 20.8 40 22.6
0038B039 2018-10-06 08:28:51 20.8 40 21.8
0038B039 2018-10-06 07:21:45 20.9 40 21.9
0038B039 2018-10-06 06:14:37 21 41 21.9
0038B039 2018-10-06 05:07:29 21 41 22.1
0038B039 2018-10-06 04:00:20 21 41 22.2
0038B039 2018-10-06 02:53:10 21 41 22.4
0038B039 2018-10-06 01:46:02 21.1 42 22.5
0038B039 2018-10-06 00:38:54 21.2 42 22.7
0038B039 2018-10-05 23:31:46 21.2 42 22.8
0038B039 2018-10-05 22:24:38 21.3 43 22.8
0038B039 2018-10-05 21:17:30 21.4 43 22.7
0038B039 2018-10-05 20:10:23 21.4 44 22.6
0038B039 2018-10-05 19:03:15 21.5 44 22.7
0038B039 2018-10-05 17:56:07 21.5 45 22.8
0038B039 2018-10-05 16:49:02 21.4 46 22.8
0038B039 2018-10-05 15:41:54 21.5 45 22.6
0038B039 2018-10-05 14:34:45 21.4 44 22.4
0038B039 2018-10-05 13:27:37 21.3 42 22.6
0038B039 2018-10-05 12:20:29 21.2 40 22.8
0038B039 2018-10-05 11:13:22 21 39 22.7
0038B039 2018-10-05 10:06:14 20.8 35 22.9
0038B039 2018-10-05 08:59:06 20.6 34 23
0038B039 2018-10-05 07:51:58 20.6 31 23.1
0038B039 2018-10-05 06:44:47 20.6 30 23
0038B039 2018-10-05 05:37:36 20.6 30 23.3
0038B039 2018-10-05 04:30:22 20.6 29 23.2
0038B039 2018-10-05 03:23:10 20.7 30 23
0038B039 2018-10-05 02:16:02 20.8 30 23.2
0038B039 2018-10-05 01:08:54 20.8 30 23.1
0038B039 2018-10-05 00:01:48 21 31 23
0038B039 2018-10-04 22:54:43 21 31 22.7
0038B039 2018-10-04 21:47:35 21 31 22.4
0038B039 2018-10-04 20:40:28 21.1 30 21.8
0038B039 2018-10-04 19:33:20 21.2 30 18.9
0038B039 2018-10-04 18:26:10 21.4 30 17.4
0038B039 2018-10-04 17:19:00 21.6 30 9.7
0038B039 2018-10-04 16:11:47 20.5 46 0